Home > Weather > Aklavik > Past weeks

Flag for Canada Past Weather in Aklavik, Northwest Territories, Canada — Yesterday and Last 2 Weeks

Now
50 °F

Broken clouds.


Feels Like: 45 °F
Forecast: 50 / 65 °F
Wind: 13 mph from Northeast

Location: Inuvik

Current Time: Jul 1, 2016 at 4:01:56 AM

Latest Report: Jul 1, 2016 at 3:00 AM


Visibility: 15 mi

Pressure: 30.01 "Hg

Humidity: 62%

Dew Point: 37 °F

Location of AklavikLocation

Past Weather in Aklavik — Graph

°F

Aklavik Temperature Yesterday

Maximum temperature yesterday: 64 °F (at 12:00 AM)
Minimum temperature yesterday: 48 °F (at 5:00 AM)
Average temperature yesterday: 56 °F

High & Low Weather Summary for the Past Weeks

 TemperatureHumidityPressure
High82 °F (Jun 18, 6:00 PM)100% (Jun 22, 2:00 AM)30.17 "Hg (Jun 22, 2:00 AM)
Low32 °F (Jun 17, 3:00 AM)19% (Jun 18, 8:00 PM)29.67 "Hg (Jun 19, 8:00 PM)
Average57 °F65%29.95 "Hg
* Reported Jun 16 3:00 AM — Jul 1 3:00 AM, Aklavik, Weather by CustomWeather, © 2016

Note: Actual official high and low records may vary slightly from our data, if they occured in-between our weather recording intervals... More about our weather records

Advertising

Aklavik Weather History for the Previous 24 Hours

Scroll right to see more
 ConditionsComfort  
Time TempWeatherWind HumidityBarometerVisibility
3:00 AM
Fri, Jul 1
50 °FBroken clouds.13 mph62%30.01 "Hg15 mi
2:00 AM52 °FBroken clouds.14 mph58%30.02 "Hg15 mi
1:00 AM55 °FBroken clouds.12 mph55%30.03 "Hg15 mi
12:00 AM57 °FPartly sunny.13 mph51%30.04 "Hg15 mi
11:00 PM
Thu, Jun 30
61 °FPartly sunny.10 mph45%30.05 "Hg15 mi
10:00 PM63 °FPartly sunny.16 mph45%30.05 "Hg15 mi
9:00 PM64 °FBroken clouds.14 mph43%30.06 "Hg15 mi
8:00 PM64 °FPartly sunny.14 mph43%30.07 "Hg15 mi
7:00 PM64 °FScattered clouds.12 mph43%30.09 "Hg15 mi
6:00 PM64 °FScattered clouds.15 mph43%30.11 "Hg15 mi
5:00 PM63 °FScattered clouds.12 mph45%30.11 "Hg15 mi
4:00 PM61 °FScattered clouds.13 mph45%30.13 "Hg15 mi
3:00 PM61 °FScattered clouds.13 mph48%30.14 "Hg15 mi
2:00 PM59 °FScattered clouds.13 mph51%30.15 "Hg15 mi
1:00 PM57 °FPartly sunny.12 mph59%30.16 "Hg15 mi
12:00 PM55 °FScattered clouds.12 mph59%30.16 "Hg15 mi
11:00 AM54 °FScattered clouds.10 mph72%30.16 "Hg15 mi
10:00 AM52 °FPartly sunny.10 mph77%30.16 "Hg15 mi
9:00 AM48 °FOvercast.10 mph87%30.16 "Hg15 mi
8:00 AM48 °FPartly sunny.13 mph82%30.16 "Hg15 mi
7:00 AM50 °FBroken clouds.7 mph82%30.15 "Hg15 mi
6:00 AM48 °FBroken clouds.6 mph87%30.15 "Hg15 mi
5:00 AM48 °FBroken clouds.8 mph87%30.13 "Hg15 mi
4:00 AM50 °FPartly sunny.8 mph88%30.13 "Hg15 mi
Weather by CustomWeather, © 2016

See weather overviewHow to use our weather pages